Regional Weather Roundup
Issued by NWS

Home | Current Version | Previous Version | Text Only | Print | Product List | Glossary On
Versions: 1 2 3 4 5 6 7 8 9 10 11 12 13 14 15 16 17 18 19 20 21 22 23 24 25 26 27 28 29 30 31 32 33 34 35 36 37 38 39 40 41 42 43 44 45 46 47 48 49 50
000
ASUS45 KREV 272110
RWRNV
NEVADA REGIONAL WEATHER ROUNDUP
NATIONAL WEATHER SERVICE RENO NV
100 PM PST THU NOV 27 2014

NOTE: "FAIR" INDICATES FEW OR NO CLOUDS BELOW 12,000 FEET WITH NO
SIGNIFICANT WEATHER AND/OR OBSTRUCTIONS TO VISIBILITY.

NVZ001-003-004-272200-
WESTERN NEVADA

CITY           SKY/WX    TMP DP  RH WIND       PRES   REMARKS
RENO           CLOUDY    64  25  22 N7        30.17F
CARSON CITY    FAIR      72  14  11 SW10G23   30.20F
MINDEN         FAIR      72  18  13 W8        30.20
SLIDE MTN        N/A     45  21  39 W41         N/A
PYRAMID LAKE     N/A     54 N/A N/A N2          N/A
FALLON         FAIR      66  20  17 S8        30.17F
LOVELOCK       FAIR      56  30  37 CALM      30.18F
HAWTHORNE      SUNNY     66  19  16 CALM      30.19F
$$

NVZ002-CAZ072-073-272200-
NORTHERN AND CENTRAL SIERRA

CITY           SKY/WX    TMP DP  RH WIND       PRES   REMARKS
S. LAKE TAHOE  FAIR      63  18  17 S18G26    30.27F
TRUCKEE        PTSUNNY   64  18  16 S15G21    30.26F
SQUAW VLY 8000 NOT AVBL
SUSANVILLE     SUNNY     66  14  13 S9        30.16F
BLUE CANYON    FAIR      60  26  27 S10       30.28F
MAMMOTH LAKES  FAIR      66   7   9 SW10G22   30.33F
BRIDGEPORT     FAIR      63  15  15 SW14G21   30.27F
$$

NVZ030-031-036-272200-
NORTHERN NEVADA

CITY           SKY/WX    TMP DP  RH WIND       PRES   REMARKS
ELKO           FAIR      58  31  35 W5        30.21F
WINNEMUCCA     FAIR      61  27  27 S12       30.16F
WENDOVER       FAIR      52  27  37 E6        30.21F
$$

NVZ035-037-272200-
CENTRAL NEVADA

CITY           SKY/WX    TMP DP  RH WIND       PRES   REMARKS
ELY            FAIR      62  14  15 E6        30.30F
EUREKA           N/A     53  21  28 CALM      30.28F
$$

NVZ013-014-272200-
SOUTH CENTRAL NEVADA

CITY           SKY/WX    TMP DP  RH WIND       PRES   REMARKS
TONOPAH        FAIR      56  18  22 CALM      30.30F
$$

NVZ017-020-022-272200-
SOUTHERN NEVADA

CITY           SKY/WX    TMP DP  RH WIND       PRES   REMARKS
LAS VEGAS      PTSUNNY   64  20  18 S6        30.18F
N. LAS VEGAS   FAIR      63  18  17 S5        30.21F
NELLIS AFB     FAIR      64  21  19 CALM      30.20F
HENDERSON      FAIR      64  21  19 N3        30.23F
MERCURY        FAIR      64  14  14 SE6       30.22F
$$



USA.gov is the U.S. government's official web portal to all federal, state and local government web resources and services.